Wind_Speed
38 37 37 37 36 35 36 37 39 39 38 37 38 38 40 40 40 41 42 42 42 42 43 44 45 45 45 46 46 47 47 48 50 51 51 51 51 51 51 51 52 52 51 51
37 36 36 35 34 35 35 36 38 39 37 37 38 39 40 40 41 42 42 42 42 42 42 43 44 44 44 44 45 45 46 47 48 49 49 49 49 49 49 50 50 50 50 50
36 35 35 35 33 34 35 36 38 38 37 37 39 39 39 40 41 42 42 42 42 42 42 42 42 42 42 42 43 43 44 45 45 46 47 47 48 49 48 48 48 49 49 49
36 35 35 34 33 34 34 35 36 37 37 38 39 39 39 40 41 41 41 41 41 41 41 41 41 41 42 41 41 42 42 42 43 44 45 46 46 47 48 47 47 47 47 47
34 35 36 33 33 35 35 35 35 37 38 39 39 39 38 39 40 40 40 40 40 40 40 40 40 40 40 40 40 40 41 41 41 41 42 43 43 44 45 46 45 45 45 45
34 35 36 34 35 36 36 36 35 36 37 38 39 39 37 38 38 38 38 39 39 39 39 40 40 40 40 40 40 40 40 40 41 41 42 42 43 43 44 44 43 44 44 44
32 33 33 33 34 35 35 36 36 37 37 37 37 37 36 36 37 37 37 38 38 39 39 39 39 40 40 40 40 40 40 41 41 41 41 41 42 42 42 43 43 44 44 44
32 33 32 31 31 32 33 35 36 37 37 37 37 36 36 35 35 36 36 36 37 37 38 38 38 38 38 39 40 40 40 40 40 40 41 41 41 41 41 42 42 43 43 44
32 33 34 33 33 34 35 36 37 37 37 37 37 36 36 35 35 35 35 36 36 36 36 36 37 38 38 39 39 39 39 39 39 39 40 40 40 40 41 41 42 41 41 42
32 32 33 34 35 36 37 38 38 38 38 37 36 36 36 35 35 34 34 35 35 35 35 36 37 37 38 38 38 39 39 39 38 38 38 38 39 39 40 40 41 40 40 40
34 33 33 33 34 35 35 36 36 37 37 37 37 37 36 36 35 34 34 34 34 35 35 36 37 38 38 38 38 37 37 37 36 37 37 37 37 37 38 38 39 39 38 39
34 34 35 35 35 35 35 35 35 36 35 34 34 34 34 34 34 33 33 34 34 34 35 36 36 36 36 36 35 34 34 34 34 34 34 35 35 36 36 37 37 37 38 38
33 33 34 34 34 35 35 34 34 34 34 33 33 32 32 33 33 33 33 33 33 34 35 35 35 34 34 33 33 32 32 32 32 32 33 33 33 33 33 34 34 35 36 36
32 33 33 33 33 34 34 34 34 33 33 32 32 32 32 32 32 32 32 33 34 34 34 34 33 32 32 31 31 31 31 31 31 31 31 31 31 31 31 32 32 33 33 34
32 32 33 33 33 34 34 33 33 32 32 31 31 31 31 31 32 32 33 32 33 33 33 33 32 31 31 31 30 30 30 30 29 29 29 29 29 29 29 30 30 31 32 33
31 32 33 33 34 34 34 33 33 32 32 33 32 32 31 31 32 33 33 33 33 32 31 31 30 30 30 29 29 28 28 28 27 27 27 27 27 27 28 28 29 30 31 32
32 33 33 34 34 34 34 34 33 33 34 34 33 32 32 32 33 33 33 33 33 32 31 30 29 28 27 26 25 25 25 26 26 26 26 27 27 27 27 28 29 29 30 31
33 33 34 34 34 34 33 33 33 33 33 32 32 33 33 33 33 33 32 32 31 31 30 29 28 27 26 25 25 25 25 25 25 25 26 26 27 27 28 28 28 28 28 29
32 32 33 33 33 33 33 33 33 32 32 32 32 32 32 32 32 32 32 31 30 30 29 29 28 27 26 24 24 25 25 25 25 25 25 26 26 26 27 27 27 27 27 27
32 32 33 33 33 34 34 34 34 34 33 32 32 32 33 33 32 32 31 31 30 30 29 28 26 25 25 24 24 24 24 24 24 24 25 25 26 26 26 26 27 27 27 27
33 33 33 34 34 34 35 34 34 34 34 33 32 33 33 33 33 32 32 31 30 29 28 27 25 24 24 24 23 23 24 24 24 24 24 25 26 26 26 26 26 26 26 26
33 33 33 34 34 34 34 34 34 34 33 33 33 33 33 33 33 32 32 31 30 29 28 26 25 25 24 24 24 24 24 23 23 23 24 24 25 25 26 26 26 26 26 25
33 34 34 34 34 33 33 33 33 34 34 34 34 33 33 33 32 32 31 30 29 29 28 27 26 25 25 24 24 24 23 23 23 23 24 24 24 24 25 25 25 24 24 24
33 33 33 33 33 33 33 33 33 33 34 34 34 33 32 32 31 30 30 29 29 28 27 27 26 25 25 24 24 23 23 23 23 23 23 23 23 23 23 24 24 24 23 23
32 33 33 33 33 33 33 33 33 33 33 32 32 31 30 30 29 28 27 27 27 27 26 26 26 25 24 24 23 23 23 23 22 22 22 22 22 22 22 22 22 22 22 22
32 32 32 32 32 32 32 31 31 31 30 29 29 29 28 28 27 27 26 25 25 25 25 25 25 24 24 24 23 23 23 22 22 22 21 21 21 21 21 21 21 21 22 22
31 31 31 31 31 30 30 30 30 30 29 28 27 27 26 26 25 24 24 24 23 23 23 23 23 23 23 23 22 22 22 22 21 21 21 21 21 21 21 21 22 22 21 22
Wind_Direction
284 284 283 284 283 280 279 279 279 281 283 282 280 281 281 281 281 280 279 280 279 278 277 276 275 274 274 273 271 270 269 268 267 266 264 263 263 263 263 264 265 266 266 266
283 283 282 281 281 280 280 280 282 283 284 284 281 281 281 281 281 280 280 280 280 279 278 277 276 276 275 274 273 272 271 270 269 267 265 264 263 262 263 264 265 266 266 265
284 283 281 280 282 281 280 281 284 285 286 285 284 281 281 281 281 281 280 280 279 278 277 277 277 277 277 276 274 273 272 271 269 267 265 264 263 262 263 264 265 265 266 266
286 284 283 286 285 283 282 283 284 285 286 286 286 284 283 281 281 281 281 280 279 278 277 277 277 277 277 277 275 274 274 272 270 268 266 265 264 264 263 264 265 267 268 268
286 286 286 286 287 286 286 285 286 286 287 288 288 286 284 282 280 280 281 281 280 279 278 277 277 277 277 277 275 274 274 273 271 269 267 266 265 265 265 265 267 268 269 269
285 286 288 290 288 287 287 288 287 288 288 288 288 287 285 283 282 281 281 281 280 279 279 278 277 277 277 276 276 275 275 274 272 270 268 266 265 265 266 266 268 269 269 270
287 288 290 291 291 290 289 290 291 289 288 288 288 288 288 286 283 282 281 281 280 280 280 279 279 278 278 277 277 276 276 275 273 271 269 267 266 265 266 267 268 269 270 270
291 290 291 292 292 292 292 291 291 290 289 287 288 288 287 287 285 283 282 282 282 282 282 281 280 279 279 279 278 278 277 275 273 271 269 267 266 266 267 267 268 269 269 269
292 292 291 290 290 291 292 292 293 292 289 287 287 288 287 287 286 285 283 283 283 284 284 283 281 281 280 279 279 279 277 275 272 270 268 267 267 267 267 268 268 269 270 270
292 292 292 292 291 291 291 292 292 292 290 289 289 289 288 288 287 286 285 285 285 285 285 283 282 282 282 281 280 279 277 275 272 270 269 268 269 268 268 268 268 269 269 270
295 296 295 294 294 294 293 293 294 293 292 291 291 291 290 289 288 287 286 286 286 286 286 285 284 283 282 282 282 281 278 275 272 269 268 268 269 269 269 269 269 269 269 270
299 298 297 296 295 295 296 296 296 295 293 292 291 292 292 290 289 288 287 287 287 288 289 288 287 285 283 283 282 281 278 275 272 271 270 269 269 269 270 271 271 270 271 272
299 299 298 298 297 298 298 297 297 297 295 294 292 292 293 292 291 289 288 288 289 290 290 290 289 287 285 283 282 281 278 275 274 273 272 271 270 269 269 271 273 273 273 273
299 299 299 299 299 299 298 297 296 296 296 295 295 294 294 294 293 292 292 291 292 292 293 292 290 288 285 284 282 281 278 276 275 273 272 271 270 269 270 272 273 274 274 275
299 300 301 301 300 300 299 297 296 296 295 295 296 295 294 293 293 293 294 294 295 295 294 292 290 288 286 283 282 280 277 275 274 273 273 271 270 270 272 273 274 274 275 275
299 300 300 300 299 299 298 297 296 296 296 295 295 294 295 295 294 294 294 295 296 296 296 295 292 289 286 284 280 278 276 275 274 273 273 272 272 272 274 275 276 276 276 276
301 300 300 300 300 300 299 298 297 296 297 297 295 295 294 294 294 294 295 296 296 296 296 296 294 290 288 285 280 278 276 275 274 274 274 273 273 273 276 277 278 278 279 279
303 302 302 303 302 301 299 298 298 297 297 297 296 295 295 294 294 295 295 296 295 295 296 297 296 293 290 286 282 280 279 277 276 275 275 274 274 274 275 277 279 280 280 280
303 304 304 304 303 301 300 299 298 298 297 297 296 296 296 295 295 295 294 294 294 293 294 295 295 293 291 287 284 282 281 280 278 276 276 276 276 276 277 278 280 281 281 280
303 304 304 304 302 301 299 298 297 297 297 296 296 296 296 295 295 295 295 293 293 291 291 292 292 290 288 286 284 282 281 280 279 278 277 278 277 277 278 279 280 281 281 280
304 304 304 303 302 302 301 299 298 297 297 296 296 295 295 295 295 294 293 293 292 290 289 290 289 287 285 284 284 284 282 281 280 279 278 278 278 278 278 278 280 281 281 280
306 306 306 306 305 304 303 301 300 298 297 296 296 296 296 295 294 292 291 291 289 288 287 287 286 286 285 285 284 284 284 282 281 280 279 279 279 278 279 279 280 280 280 280
307 307 307 307 307 306 305 303 302 301 299 298 296 296 295 295 294 293 290 288 287 287 286 284 283 284 283 283 283 283 283 282 281 281 281 280 279 279 279 278 279 279 279 279
308 309 310 310 309 309 308 306 304 303 301 299 298 297 296 295 294 292 289 287 286 285 284 282 282 282 282 282 282 281 281 280 280 281 282 281 281 280 280 279 279 279 279 279
310 310 311 312 312 311 311 310 308 306 304 302 301 299 297 296 295 292 290 287 285 283 283 283 282 281 280 281 281 281 280 280 280 281 282 282 282 281 281 281 281 282 281 281
312 313 313 314 314 314 314 314 313 311 309 307 304 302 300 298 296 293 291 289 286 284 283 282 282 280 279 280 280 279 279 278 279 280 281 282 282 282 281 281 281 282 282 282
316 315 315 316 316 316 316 316 316 315 313 311 308 305 303 301 298 295 293 290 288 286 284 282 281 279 279 279 280 279 278 277 277 279 281 282 283 284 284 284 283 283 284 284
Height
5541 5540 5537 5536 5535 5533 5531 5529 5527 5527 5526 5525 5523 5521 5519 5518 5516 5515 5513 5512 5510 5509 5508 5507 5506 5505 5504 5503 5503 5502 5502 5502 5502 5503 5504 5504 5505 5506 5507 5507 5508 5508 5509 5509
5532 5530 5527 5526 5525 5523 5521 5519 5517 5516 5516 5515 5512 5510 5508 5506 5504 5503 5501 5500 5498 5496 5495 5493 5492 5491 5490 5489 5488 5488 5487 5487 5487 5487 5488 5489 5490 5491 5492 5493 5493 5494 5494 5494
5521 5520 5517 5516 5517 5514 5512 5511 5508 5505 5506 5503 5501 5498 5497 5495 5493 5490 5489 5487 5486 5484 5482 5481 5479 5478 5477 5476 5475 5474 5474 5473 5473 5473 5474 5475 5475 5476 5477 5478 5479 5479 5480 5480
5510 5509 5507 5510 5507 5505 5502 5501 5499 5496 5494 5492 5489 5487 5485 5483 5480 5478 5477 5475 5473 5471 5470 5468 5467 5465 5464 5463 5462 5461 5461 5460 5459 5459 5460 5461 5462 5462 5463 5464 5465 5465 5466 5466
5501 5498 5497 5499 5497 5494 5492 5491 5489 5486 5484 5481 5478 5476 5474 5471 5469 5467 5465 5463 5461 5459 5458 5456 5455 5453 5452 5451 5450 5449 5448 5447 5447 5446 5447 5447 5448 5449 5450 5451 5451 5452 5452 5452
5492 5489 5488 5490 5487 5483 5482 5480 5479 5475 5473 5470 5467 5465 5464 5461 5458 5456 5453 5451 5449 5447 5446 5444 5443 5441 5440 5439 5437 5436 5435 5434 5434 5433 5434 5434 5435 5436 5437 5437 5438 5438 5438 5438
5484 5481 5480 5480 5477 5474 5473 5471 5468 5465 5462 5459 5456 5454 5452 5449 5447 5444 5442 5440 5437 5436 5434 5432 5431 5429 5428 5426 5425 5424 5422 5421 5421 5421 5421 5421 5422 5423 5423 5424 5424 5424 5425 5425
5476 5473 5474 5471 5467 5465 5463 5460 5457 5454 5451 5449 5446 5444 5441 5438 5435 5433 5431 5428 5426 5424 5422 5420 5419 5417 5416 5414 5413 5411 5410 5409 5408 5408 5408 5408 5409 5410 5410 5410 5411 5411 5411 5411
5469 5468 5464 5461 5458 5456 5453 5450 5447 5444 5441 5438 5436 5433 5431 5428 5425 5422 5420 5418 5416 5413 5411 5409 5407 5405 5403 5402 5400 5398 5397 5396 5396 5395 5395 5395 5396 5397 5397 5397 5398 5398 5398 5397
5460 5459 5456 5453 5450 5447 5443 5440 5437 5433 5430 5428 5425 5423 5420 5417 5414 5412 5410 5407 5405 5403 5401 5398 5396 5394 5391 5389 5387 5386 5385 5384 5383 5383 5383 5383 5384 5384 5385 5385 5385 5385 5384 5384
5452 5451 5448 5445 5441 5438 5434 5430 5427 5424 5420 5417 5415 5412 5409 5407 5404 5402 5399 5397 5395 5392 5390 5387 5385 5382 5380 5377 5375 5373 5372 5371 5371 5371 5372 5372 5372 5372 5373 5373 5373 5373 5373 5372
5444 5441 5438 5435 5432 5428 5424 5421 5417 5414 5411 5408 5405 5402 5399 5396 5394 5391 5389 5387 5384 5382 5379 5376 5373 5370 5368 5365 5364 5362 5361 5360 5360 5360 5360 5361 5361 5362 5361 5361 5361 5361 5361 5360
5435 5432 5428 5425 5422 5418 5415 5412 5408 5405 5402 5399 5395 5392 5389 5387 5384 5382 5380 5377 5374 5371 5368 5365 5362 5359 5357 5355 5353 5352 5351 5350 5350 5350 5350 5350 5351 5351 5351 5351 5350 5350 5349 5348
5427 5423 5420 5417 5413 5409 5406 5402 5399 5396 5393 5390 5387 5383 5380 5378 5375 5373 5370 5368 5365 5361 5358 5355 5352 5349 5347 5345 5343 5342 5341 5340 5340 5340 5340 5340 5340 5341 5341 5341 5340 5339 5338 5337
5419 5415 5412 5408 5404 5401 5397 5394 5391 5387 5384 5382 5378 5375 5372 5369 5367 5364 5361 5358 5355 5352 5348 5345 5343 5340 5338 5336 5334 5332 5331 5331 5330 5330 5330 5330 5331 5331 5331 5331 5330 5329 5328 5327
5411 5407 5404 5400 5396 5392 5389 5385 5382 5379 5376 5373 5370 5367 5364 5361 5358 5355 5352 5349 5346 5343 5339 5336 5333 5331 5328 5326 5325 5323 5322 5322 5321 5321 5321 5321 5321 5321 5321 5321 5321 5320 5319 5317
5403 5399 5396 5392 5388 5384 5380 5377 5373 5370 5367 5364 5361 5358 5355 5352 5349 5346 5343 5339 5336 5334 5331 5327 5324 5322 5320 5318 5316 5315 5314 5314 5313 5313 5313 5313 5313 5313 5313 5312 5312 5311 5309 5308
5395 5390 5386 5382 5379 5375 5372 5368 5365 5362 5358 5355 5352 5349 5346 5343 5340 5337 5334 5331 5328 5325 5322 5319 5316 5314 5312 5310 5309 5307 5306 5306 5305 5305 5304 5304 5304 5304 5304 5304 5303 5302 5300 5299
5386 5382 5378 5374 5369 5366 5363 5359 5356 5353 5350 5347 5344 5340 5337 5334 5331 5328 5325 5322 5319 5317 5314 5311 5308 5306 5304 5302 5301 5300 5299 5298 5297 5297 5296 5296 5296 5296 5295 5295 5294 5293 5292 5290
5378 5374 5370 5366 5361 5357 5353 5350 5347 5344 5341 5337 5334 5331 5328 5325 5321 5318 5315 5312 5310 5307 5305 5302 5300 5298 5296 5294 5293 5292 5291 5290 5289 5289 5288 5288 5288 5287 5287 5286 5285 5284 5283 5282
5370 5366 5361 5357 5353 5349 5344 5340 5337 5334 5331 5328 5324 5321 5318 5315 5312 5309 5306 5303 5301 5298 5296 5294 5292 5290 5288 5287 5285 5284 5283 5282 5282 5281 5280 5280 5279 5279 5278 5277 5277 5275 5274 5273
5361 5357 5352 5348 5344 5339 5335 5331 5327 5324 5321 5317 5314 5311 5308 5305 5302 5299 5296 5294 5291 5289 5287 5285 5283 5282 5281 5279 5278 5277 5276 5275 5274 5273 5272 5272 5271 5270 5270 5269 5268 5267 5266 5265
5352 5348 5343 5339 5334 5330 5326 5321 5317 5313 5310 5306 5303 5300 5297 5294 5291 5288 5286 5284 5282 5280 5278 5276 5275 5274 5273 5272 5270 5269 5268 5267 5266 5266 5265 5264 5263 5262 5262 5261 5260 5259 5258 5257
5344 5339 5334 5330 5325 5320 5316 5312 5307 5303 5299 5295 5292 5289 5285 5283 5280 5278 5275 5273 5272 5270 5269 5267 5266 5265 5264 5264 5263 5262 5261 5260 5259 5258 5257 5256 5255 5254 5254 5253 5252 5251 5250 5249
5335 5331 5326 5321 5316 5311 5306 5302 5297 5293 5289 5285 5281 5278 5275 5272 5269 5267 5265 5263 5262 5261 5260 5259 5258 5257 5256 5255 5255 5254 5253 5252 5251 5250 5249 5249 5248 5247 5246 5245 5244 5243 5242 5241
5327 5322 5317 5312 5307 5302 5297 5292 5288 5283 5279 5275 5271 5268 5265 5262 5259 5257 5255 5254 5253 5252 5251 5250 5249 5248 5248 5247 5246 5246 5245 5244 5243 5243 5242 5241 5240 5239 5238 5237 5237 5236 5235 5234
5320 5315 5310 5305 5300 5294 5289 5284 5279 5274 5270 5266 5262 5259 5256 5253 5250 5248 5246 5245 5244 5243 5242 5241 5240 5240 5239 5239 5238 5238 5237 5237 5236 5235 5235 5234 5233 5232 5231 5231 5230 5229 5227 5226